| time (UTC) | temp F | wind direction | speed MPH | gust MPH | rain 1hr in | rain 24hr in | rain mn in | humidity % | barometer mb |
| 20260904222108 | 94 | 47 | 0.0 | 0.0 | 0.00 | 0.00 | 0.00 | 50 | 1007.6 |
| 20260904221608 | 94 | 47 | 0.0 | 1.0 | 0.00 | 0.00 | 0.00 | 49 | 1007.7 |
| 20260904221108 | 94 | 47 | 0.0 | 1.0 | 0.00 | 0.00 | 0.00 | 49 | 1007.3 |
| 20260904220602 | 94 | 47 | 0.0 | 1.0 | 0.00 | 0.00 | 0.00 | 49 | 1007.5 |
| 20260904220058 | 94 | 46 | 0.0 | 1.0 | 0.00 | 0.00 | 0.00 | 50 | 1007.5 |
| 20260904215552 | 94 | 47 | 1.0 | 1.0 | 0.00 | 0.00 | 0.00 | 49 | 1007.7 |
| 20260904215048 | 94 | 49 | 0.0 | 0.0 | 0.00 | 0.00 | 0.00 | 51 | 1007.6 |
| 20260904214543 | 94 | 49 | 0.0 | 0.0 | 0.00 | 0.00 | 0.00 | 50 | 1007.5 |
| 20260904214038 | 94 | 50 | 0.0 | 2.0 | 0.00 | 0.00 | 0.00 | 50 | 1007.7 |
| 20260904213536 | 94 | 44 | 0.0 | 2.0 | 0.00 | 0.00 | 0.00 | 50 | 1007.9 |
| 20260904213034 | 94 | 60 | 1.0 | 2.0 | 0.00 | 0.00 | 0.00 | 50 | 1007.7 |
| 20260904212532 | 94 | 42 | 0.0 | 1.0 | 0.00 | 0.00 | 0.00 | 51 | 1007.8 |
| 20260904212028 | 94 | 50 | 1.0 | 1.0 | 0.00 | 0.00 | 0.00 | 50 | 1007.8 |
| 20260904211528 | 94 | 50 | 0.0 | 1.0 | 0.00 | 0.00 | 0.00 | 50 | 1007.6 |
| 20260904211023 | 94 | 51 | 0.0 | 1.0 | 0.00 | 0.00 | 0.00 | 51 | 1007.7 |
| 20260904210523 | 94 | 46 | 0.0 | 1.0 | 0.00 | 0.00 | 0.00 | 51 | 1007.8 |
| 20260904210019 | 95 | 34 | 1.0 | 1.0 | 0.00 | 0.00 | 0.00 | 51 | 1007.7 |
| 20260904205514 | 94 | 36 | 0.0 | 1.0 | 0.00 | 0.00 | 0.00 | 51 | 1007.7 |
| 20260904205011 | 95 | 42 | 0.0 | 2.0 | 0.00 | 0.00 | 0.00 | 50 | 1007.9 |
| 20260904204506 | 95 | 45 | 0.0 | 1.0 | 0.00 | 0.00 | 0.00 | 51 | 1008.1 |
| 20260904204002 | 94 | 49 | 1.0 | 2.0 | 0.00 | 0.00 | 0.00 | 51 | 1008.0 |
| 20260904203458 | 95 | 40 | 0.0 | 1.0 | 0.00 | 0.00 | 0.00 | 52 | 1008.2 |
| 20260904202954 | 94 | 47 | 1.0 | 1.0 | 0.00 | 0.00 | 0.00 | 51 | 1008.0 |
| 20260904202450 | 95 | 29 | 0.0 | 2.0 | 0.00 | 0.00 | 0.00 | 52 | 1008.3 |
| 20260904201946 | 95 | 43 | 1.0 | 5.0 | 0.00 | 0.00 | 0.00 | 52 | 1008.4 |
| 20260904201440 | 95 | 46 | 1.0 | 1.0 | 0.00 | 0.00 | 0.00 | 50 | 1008.5 |
| 20260904200936 | 95 | 32 | 0.0 | 1.0 | 0.00 | 0.00 | 0.00 | 50 | 1008.8 |
| 20260904200434 | 95 | 36 | 1.0 | 1.0 | 0.00 | 0.00 | 0.00 | 50 | 1008.7 |
| 20260904195930 | 95 | 35 | 1.0 | 1.0 | 0.00 | 0.00 | 0.00 | 51 | 1008.7 |
| 20260904195428 | 95 | 34 | 0.0 | 1.0 | 0.00 | 0.00 | 0.00 | 52 | 1008.7 |
| 20260904194927 | 95 | 38 | 0.0 | 2.0 | 0.00 | 0.00 | 0.00 | 52 | 1008.9 |
| 20260904194427 | 95 | 33 | 0.0 | 2.0 | 0.00 | 0.00 | 0.00 | 52 | 1008.9 |
| 20260904193922 | 95 | 39 | 1.0 | 2.0 | 0.00 | 0.00 | 0.00 | 52 | 1008.8 |
| 20260904193418 | 96 | 36 | 1.0 | 3.0 | 0.00 | 0.00 | 0.00 | 53 | 1009.2 |
| 20260904192914 | 95 | 22 | 0.0 | 3.0 | 0.00 | 0.00 | 0.00 | 53 | 1009.3 |
| 20260904192409 | 95 | 35 | 2.0 | 3.0 | 0.00 | 0.00 | 0.00 | 55 | 1009.4 |
| 20260904191905 | 96 | 55 | 2.0 | 5.0 | 0.00 | 0.00 | 0.00 | 54 | 1009.4 |
| 20260904191401 | 95 | 26 | 0.0 | 3.0 | 0.00 | 0.00 | 0.00 | 55 | 1009.3 |
| 20260904190857 | 95 | 30 | 0.0 | 2.0 | 0.00 | 0.00 | 0.00 | 56 | 1009.4 |
| 20260904190352 | 94 | 31 | 1.0 | 3.0 | 0.00 | 0.00 | 0.00 | 55 | 1009.6 |
| 20260904185849 | 94 | 31 | 2.0 | 3.0 | 0.00 | 0.00 | 0.00 | 56 | 1009.6 |
| 20260904185344 | 94 | 31 | 1.0 | 5.0 | 0.00 | 0.00 | 0.00 | 56 | 1009.7 |
| 20260904184844 | 94 | 32 | 0.0 | 7.0 | 0.00 | 0.00 | 0.00 | 56 | 1010.0 |
| 20260904184339 | 93 | 31 | 0.0 | 2.0 | 0.00 | 0.00 | 0.00 | 56 | 1010.1 |
| 20260904183834 | 93 | 43 | 1.0 | 3.0 | 0.00 | 0.00 | 0.00 | 56 | 1010.0 |
| 20260904183329 | 92 | 26 | 1.0 | 2.0 | 0.00 | 0.00 | 0.00 | 56 | 1009.9 |
| 20260904182824 | 92 | 56 | 2.0 | 2.0 | 0.00 | 0.00 | 0.00 | 56 | 1010.0 |
| 20260904182319 | 92 | 47 | 2.0 | 3.0 | 0.00 | 0.00 | 0.00 | 56 | 1010.0 |
| 20260904181815 | 92 | 40 | 1.0 | 2.0 | 0.00 | 0.00 | 0.00 | 56 | 1010.5 |
| 20260904181315 | 92 | 34 | 1.0 | 6.0 | 0.00 | 0.00 | 0.00 | 56 | 1010.0 |
| 20260904180810 | 92 | 28 | 1.0 | 2.0 | 0.00 | 0.00 | 0.00 | 56 | 1010.1 |
| 20260904180305 | 92 | 36 | 0.0 | 2.0 | 0.00 | 0.00 | 0.00 | 57 | 1010.1 |
| 20260904175804 | 91 | 33 | 0.0 | 2.0 | 0.00 | 0.00 | 0.00 | 57 | 1010.4 |
| 20260904175305 | 91 | 32 | 0.0 | 2.0 | 0.00 | 0.00 | 0.00 | 57 | 1010.1 |
| 20260904174758 | 91 | 27 | 1.0 | 2.0 | 0.00 | 0.00 | 0.00 | 56 | 1010.4 |
| 20260904174254 | 91 | 25 | 2.0 | 2.0 | 0.00 | 0.00 | 0.00 | 57 | 1010.5 |
| 20260904173749 | 90 | 27 | 0.0 | 2.0 | 0.00 | 0.00 | 0.00 | 57 | 1010.5 |
| 20260904173244 | 90 | 52 | 1.0 | 1.0 | 0.00 | 0.00 | 0.00 | 59 | 1010.5 |
| 20260904172741 | 90 | 22 | 1.0 | 1.0 | 0.00 | 0.00 | 0.00 | 60 | 1010.6 |
| 20260904172239 | 89 | 29 | 0.0 | 1.0 | 0.00 | 0.00 | 0.00 | 61 | 1010.5 |
| 20260904171734 | 89 | 51 | 2.0 | 2.0 | 0.00 | 0.00 | 0.00 | 62 | 1010.7 |
| 20260904171229 | 88 | 25 | 0.0 | 2.0 | 0.00 | 0.00 | 0.00 | 62 | 1010.6 |
| 20260904170726 | 89 | 35 | 1.0 | 2.0 | 0.00 | 0.00 | 0.00 | 62 | 1010.9 |
| 20260904170221 | 88 | 9 | 1.0 | 2.0 | 0.00 | 0.00 | 0.00 | 65 | 1010.8 |
| 20260904165720 | 88 | 37 | 0.0 | 2.0 | 0.00 | 0.00 | 0.00 | 65 | 1010.9 |
| 20260904165215 | 88 | 41 | 1.0 | 2.0 | 0.00 | 0.00 | 0.00 | 65 | 1010.8 |
| 20260904164709 | 88 | 39 | 1.0 | 2.0 | 0.00 | 0.00 | 0.00 | 65 | 1010.9 |
| 20260904164210 | 88 | 47 | 2.0 | 3.0 | 0.00 | 0.00 | 0.00 | 65 | 1011.2 |
| 20260904163706 | 88 | 56 | 2.0 | 2.0 | 0.00 | 0.00 | 0.00 | 66 | 1011.3 |
| 20260904163201 | 87 | 38 | 0.0 | 1.0 | 0.00 | 0.00 | 0.00 | 69 | 1011.4 |
| 20260904162700 | 87 | 18 | 1.0 | 2.0 | 0.00 | 0.00 | 0.00 | 70 | 1011.3 |
| 20260904162155 | 86 | 25 | 0.0 | 2.0 | 0.00 | 0.00 | 0.00 | 70 | 1011.5 |
| 20260904161651 | 86 | 32 | 0.0 | 1.0 | 0.00 | 0.00 | 0.00 | 70 | 1011.4 |
| 20260904161146 | 86 | 14 | 1.0 | 2.0 | 0.00 | 0.00 | 0.00 | 69 | 1011.6 |
| 20260904160642 | 86 | 5 | 1.0 | 1.0 | 0.00 | 0.00 | 0.00 | 69 | 1011.5 |
| 20260904160137 | 86 | 20 | 1.0 | 1.0 | 0.00 | 0.00 | 0.00 | 69 | 1011.6 |
| 20260904155632 | 86 | 26 | 1.0 | 1.0 | 0.00 | 0.00 | 0.00 | 69 | 1011.6 |
| 20260904155126 | 86 | 22 | 1.0 | 1.0 | 0.00 | 0.00 | 0.00 | 70 | 1011.9 |
| 20260904154625 | 86 | 40 | 0.0 | 1.0 | 0.00 | 0.00 | 0.00 | 71 | 1011.6 |
| 20260904154125 | 85 | 39 | 1.0 | 1.0 | 0.00 | 0.00 | 0.00 | 70 | 1011.8 |
| 20260904153620 | 85 | 42 | 0.0 | 1.0 | 0.00 | 0.00 | 0.00 | 70 | 1011.9 |
| 20260904153115 | 85 | 36 | 1.0 | 1.0 | 0.00 | 0.00 | 0.00 | 68 | 1011.9 |
| 20260904152612 | 84 | 49 | 1.0 | 3.0 | 0.00 | 0.00 | 0.00 | 69 | 1011.9 |
| 20260904152107 | 84 | 38 | 0.0 | 2.0 | 0.00 | 0.00 | 0.00 | 71 | 1011.9 |
| 20260904151602 | 84 | 39 | 1.0 | 2.0 | 0.00 | 0.00 | 0.00 | 76 | 1011.9 |
| 20260904151101 | 83 | 49 | 0.0 | 2.0 | 0.00 | 0.00 | 0.00 | 77 | 1012.0 |
| 20260904150556 | 83 | 56 | 1.0 | 2.0 | 0.00 | 0.00 | 0.00 | 77 | 1012.0 |
| 20260904150050 | 83 | 56 | 2.0 | 2.0 | 0.00 | 0.00 | 0.00 | 79 | 1011.8 |
| 20260904145549 | 83 | 41 | 2.0 | 3.0 | 0.00 | 0.00 | 0.00 | 80 | 1011.9 |
| 20260904145045 | 82 | 38 | 1.0 | 2.0 | 0.00 | 0.00 | 0.00 | 81 | 1011.9 |
| 20260904144541 | 82 | 56 | 2.0 | 2.0 | 0.00 | 0.00 | 0.00 | 82 | 1011.7 |
| 20260904144037 | 82 | 35 | 0.0 | 1.0 | 0.00 | 0.00 | 0.00 | 83 | 1011.7 |
| 20260904143532 | 81 | 17 | 0.0 | 1.0 | 0.00 | 0.00 | 0.00 | 84 | 1011.7 |
| 20260904143029 | 81 | 4 | 1.0 | 1.0 | 0.00 | 0.00 | 0.00 | 84 | 1011.7 |
| 20260904142525 | 81 | 40 | 1.0 | 2.0 | 0.00 | 0.00 | 0.00 | 85 | 1011.7 |
| 20260904142020 | 80 | 29 | 0.0 | 1.0 | 0.00 | 0.00 | 0.00 | 86 | 1011.7 |
| 20260904141515 | 80 | 37 | 1.0 | 2.0 | 0.00 | 0.00 | 0.00 | 86 | 1011.4 |
| 20260904141011 | 79 | 25 | 0.0 | 0.0 | 0.00 | 0.00 | 0.00 | 86 | 1011.7 |
| 20260904140511 | 79 | 16 | 0.0 | 1.0 | 0.00 | 0.00 | 0.00 | 87 | 1011.7 |
| 20260904140011 | 79 | 25 | 0.0 | 0.0 | 0.00 | 0.00 | 0.00 | 87 | 1011.6 |
| 20260904135510 | 79 | 23 | 0.0 | 1.0 | 0.00 | 0.00 | 0.00 | 88 | 1011.6 |
| 20260904135006 | 78 | 34 | 0.0 | 1.0 | 0.00 | 0.00 | 0.00 | 88 | 1011.8 |
| 20260904134501 | 78 | 31 | 0.0 | 0.0 | 0.00 | 0.00 | 0.00 | 89 | 1011.8 |
| 20260904133955 | 78 | 24 | 0.0 | 1.0 | 0.00 | 0.00 | 0.00 | 89 | 1011.6 |
| 20260904133449 | 78 | 26 | 1.0 | 1.0 | 0.00 | 0.00 | 0.00 | 89 | 1011.7 |
| 20260904132945 | 78 | 17 | 1.0 | 2.0 | 0.00 | 0.00 | 0.00 | 89 | 1011.9 |
| 20260904132440 | 78 | 22 | 1.0 | 2.0 | 0.00 | 0.00 | 0.00 | 89 | 1011.7 |
| 20260904131940 | 78 | 14 | 2.0 | 2.0 | 0.00 | 0.00 | 0.00 | 89 | 1011.8 |
| 20260904131435 | 78 | 37 | 0.0 | 0.0 | 0.00 | 0.00 | 0.00 | 90 | 1011.9 |
| 20260904130931 | 78 | 39 | 0.0 | 1.0 | 0.00 | 0.00 | 0.00 | 90 | 1011.8 |
| 20260904130430 | 77 | 13 | 1.0 | 1.0 | 0.00 | 0.00 | 0.00 | 90 | 1011.9 |
| 20260904125925 | 77 | 15 | 1.0 | 1.0 | 0.00 | 0.00 | 0.00 | 90 | 1011.8 |
| 20260904125421 | 77 | 32 | 1.0 | 1.0 | 0.00 | 0.00 | 0.00 | 90 | 1011.8 |
| 20260904124920 | 77 | 2 | 1.0 | 2.0 | 0.00 | 0.00 | 0.00 | 90 | 1011.9 |
| 20260904124417 | 77 | 8 | 1.0 | 2.0 | 0.00 | 0.00 | 0.00 | 90 | 1012.0 |
| 20260904123912 | 77 | 359 | 1.0 | 2.0 | 0.00 | 0.00 | 0.00 | 90 | 1012.0 |
| 20260904123407 | 77 | 4 | 1.0 | 2.0 | 0.00 | 0.00 | 0.00 | 90 | 1012.0 |
| 20260904122903 | 77 | 345 | 2.0 | 2.0 | 0.00 | 0.00 | 0.00 | 90 | 1011.9 |
| 20260904122402 | 77 | 3 | 1.0 | 2.0 | 0.00 | 0.00 | 0.00 | 90 | 1011.9 |
| 20260904121856 | 77 | 333 | 3.0 | 3.0 | 0.00 | 0.00 | 0.00 | 90 | 1012.0 |
| 20260904121353 | 77 | 333 | 2.0 | 2.0 | 0.00 | 0.00 | 0.00 | 90 | 1011.8 |
| 20260904120849 | 77 | 26 | 0.0 | 0.0 | 0.00 | 0.00 | 0.00 | 90 | 1012.0 |
| 20260904120345 | 77 | 6 | 1.0 | 1.0 | 0.00 | 0.00 | 0.00 | 90 | 1012.1 |
| 20260904115839 | 77 | 329 | 0.0 | 0.0 | 0.00 | 0.00 | 0.00 | 91 | 1011.9 |
| 20260904115335 | 76 | 337 | 0.0 | 0.0 | 0.00 | 0.00 | 0.00 | 91 | 1011.7 |
| 20260904114829 | 76 | 337 | 0.0 | 0.0 | 0.00 | 0.00 | 0.00 | 91 | 1011.8 |
| 20260904114324 | 76 | 342 | 0.0 | 0.0 | 0.00 | 0.00 | 0.00 | 91 | 1011.8 |
| 20260904113819 | 76 | 319 | 1.0 | 2.0 | 0.00 | 0.00 | 0.00 | 91 | 1011.7 |
| 20260904113319 | 76 | 344 | 0.0 | 0.0 | 0.00 | 0.00 | 0.00 | 91 | 1011.9 |
| 20260904112813 | 76 | 344 | 0.0 | 0.0 | 0.00 | 0.00 | 0.00 | 91 | 1011.9 |
| 20260904112309 | 76 | 344 | 0.0 | 1.0 | 0.00 | 0.00 | 0.00 | 91 | 1011.5 |
| 20260904111804 | 77 | 343 | 0.0 | 0.0 | 0.00 | 0.00 | 0.00 | 91 | 1011.6 |
| 20260904111300 | 76 | 341 | 0.0 | 1.0 | 0.00 | 0.00 | 0.00 | 91 | 1011.6 |
| 20260904110755 | 77 | 339 | 0.0 | 0.0 | 0.00 | 0.00 | 0.00 | 91 | 1011.4 |
| 20260904110254 | 76 | 346 | 0.0 | 1.0 | 0.00 | 0.00 | 0.00 | 91 | 1011.5 |
| 20260904105750 | 76 | 346 | 0.0 | 0.0 | 0.00 | 0.00 | 0.00 | 90 | 1011.6 |
| 20260904105244 | 76 | 347 | 0.0 | 0.0 | 0.00 | 0.00 | 0.00 | 90 | 1011.5 |
| 20260904104739 | 76 | 347 | 0.0 | 0.0 | 0.00 | 0.00 | 0.00 | 90 | 1011.3 |
| 20260904104235 | 76 | 347 | 0.0 | 0.0 | 0.00 | 0.00 | 0.00 | 90 | 1011.6 |
| 20260904103732 | 76 | 346 | 0.0 | 0.0 | 0.00 | 0.00 | 0.00 | 90 | 1011.1 |
| 20260904103226 | 76 | 346 | 0.0 | 0.0 | 0.00 | 0.00 | 0.00 | 90 | 1011.4 |
| 20260904102722 | 76 | 345 | 0.0 | 0.0 | 0.00 | 0.00 | 0.00 | 90 | 1011.1 |
| 20260904102218 | 76 | 344 | 0.0 | 0.0 | 0.00 | 0.00 | 0.00 | 90 | 1010.9 |
| 20260904101714 | 76 | 344 | 0.0 | 0.0 | 0.00 | 0.00 | 0.00 | 89 | 1011.0 |
| 20260904101209 | 76 | 343 | 0.0 | 0.0 | 0.00 | 0.00 | 0.00 | 89 | 1011.0 |
| 20260904100705 | 76 | 343 | 0.0 | 0.0 | 0.00 | 0.00 | 0.00 | 89 | 1011.0 |
| 20260904100201 | 76 | 343 | 0.0 | 0.0 | 0.00 | 0.00 | 0.00 | 89 | 1011.2 |
| 20260904095700 | 76 | 343 | 0.0 | 0.0 | 0.00 | 0.00 | 0.00 | 89 | 1010.8 |
| 20260904095155 | 76 | 343 | 0.0 | 0.0 | 0.00 | 0.00 | 0.00 | 89 | 1010.8 |
| 20260904094650 | 76 | 343 | 0.0 | 0.0 | 0.00 | 0.00 | 0.00 | 89 | 1010.8 |
| 20260904094145 | 76 | 343 | 0.0 | 0.0 | 0.00 | 0.00 | 0.00 | 89 | 1010.9 |
| 20260904093642 | 76 | 343 | 0.0 | 0.0 | 0.00 | 0.00 | 0.00 | 88 | 1010.8 |
| 20260904093141 | 77 | 343 | 0.0 | 0.0 | 0.00 | 0.00 | 0.00 | 88 | 1010.8 |
| 20260904092638 | 76 | 343 | 0.0 | 0.0 | 0.00 | 0.00 | 0.00 | 88 | 1010.7 |
| 20260904092133 | 77 | 343 | 0.0 | 0.0 | 0.00 | 0.00 | 0.00 | 88 | 1010.6 |
| 20260904091629 | 77 | 343 | 0.0 | 0.0 | 0.00 | 0.00 | 0.00 | 88 | 1010.6 |
| 20260904091129 | 77 | 343 | 0.0 | 0.0 | 0.00 | 0.00 | 0.00 | 88 | 1010.5 |
| 20260904090624 | 77 | 342 | 0.0 | 0.0 | 0.00 | 0.00 | 0.00 | 88 | 1010.4 |
| 20260904090121 | 77 | 342 | 0.0 | 0.0 | 0.00 | 0.00 | 0.00 | 87 | 1010.4 |
| 20260904085620 | 77 | 342 | 0.0 | 0.0 | 0.00 | 0.00 | 0.00 | 87 | 1010.4 |
| 20260904085120 | 77 | 343 | 0.0 | 0.0 | 0.00 | 0.00 | 0.00 | 87 | 1010.3 |
| 20260904084616 | 77 | 343 | 0.0 | 0.0 | 0.00 | 0.00 | 0.00 | 87 | 1010.3 |
| 20260904084112 | 77 | 344 | 0.0 | 0.0 | 0.00 | 0.00 | 0.00 | 87 | 1010.2 |
| 20260904083608 | 77 | 343 | 0.0 | 0.0 | 0.00 | 0.00 | 0.00 | 87 | 1010.1 |
| 20260904083103 | 77 | 343 | 0.0 | 0.0 | 0.00 | 0.00 | 0.00 | 87 | 1010.2 |
| 20260904082558 | 77 | 343 | 0.0 | 0.0 | 0.00 | 0.00 | 0.00 | 87 | 1010.2 |
| 20260904082054 | 77 | 343 | 0.0 | 0.0 | 0.00 | 0.00 | 0.00 | 87 | 1009.9 |
| 20260904081549 | 77 | 343 | 0.0 | 0.0 | 0.00 | 0.00 | 0.00 | 87 | 1010.0 |
| 20260904081044 | 77 | 343 | 0.0 | 0.0 | 0.00 | 0.00 | 0.00 | 86 | 1009.9 |
| 20260904080540 | 77 | 343 | 0.0 | 0.0 | 0.00 | 0.00 | 0.00 | 86 | 1010.1 |
| 20260904080036 | 77 | 343 | 0.0 | 0.0 | 0.00 | 0.00 | 0.00 | 86 | 1010.0 |
| 20260904075532 | 77 | 343 | 0.0 | 0.0 | 0.00 | 0.00 | 0.00 | 86 | 1010.1 |
| 20260904075026 | 77 | 343 | 0.0 | 0.0 | 0.00 | 0.00 | 0.00 | 86 | 1010.0 |
| 20260904074520 | 77 | 343 | 0.0 | 0.0 | 0.00 | 0.00 | 0.00 | 86 | 1009.9 |
| 20260904074020 | 77 | 343 | 0.0 | 0.0 | 0.00 | 0.00 | 0.00 | 86 | 1009.8 |
| 20260904073515 | 77 | 343 | 0.0 | 0.0 | 0.00 | 0.00 | 0.00 | 85 | 1009.8 |
| 20260904073012 | 77 | 343 | 0.0 | 0.0 | 0.00 | 0.00 | 0.00 | 85 | 1009.8 |
| 20260904072507 | 77 | 343 | 0.0 | 0.0 | 0.00 | 0.00 | 0.00 | 85 | 1010.1 |
| 20260904072002 | 77 | 343 | 0.0 | 0.0 | 0.00 | 0.00 | 0.00 | 85 | 1010.0 |
| 20260904071457 | 77 | 343 | 0.0 | 0.0 | 0.00 | 0.00 | 0.00 | 85 | 1010.3 |
| 20260904070952 | 78 | 343 | 0.0 | 0.0 | 0.00 | 0.00 | 0.00 | 85 | 1010.2 |
| 20260904070450 | 78 | 342 | 0.0 | 0.0 | 0.00 | 0.00 | 0.00 | 84 | 1010.0 |
| 20260904065945 | 78 | 342 | 0.0 | 0.0 | 0.00 | 0.00 | 0.00 | 84 | 1010.1 |
| 20260904065441 | 78 | 342 | 0.0 | 0.0 | 0.00 | 0.00 | 0.00 | 84 | 1010.2 |
| 20260904064936 | 78 | 342 | 0.0 | 0.0 | 0.00 | 0.00 | 0.00 | 84 | 1010.1 |
| 20260904064433 | 78 | 342 | 0.0 | 0.0 | 0.00 | 0.00 | 0.00 | 84 | 1010.0 |
| 20260904063928 | 78 | 342 | 0.0 | 0.0 | 0.00 | 0.00 | 0.00 | 84 | 1010.2 |
| 20260904063424 | 78 | 341 | 0.0 | 0.0 | 0.00 | 0.00 | 0.00 | 84 | 1010.2 |
| 20260904062919 | 78 | 341 | 0.0 | 0.0 | 0.00 | 0.00 | 0.00 | 83 | 1010.3 |
| 20260904062415 | 78 | 341 | 0.0 | 0.0 | 0.00 | 0.00 | 0.00 | 83 | 1010.4 |
| 20260904061911 | 78 | 341 | 0.0 | 0.0 | 0.00 | 0.00 | 0.00 | 83 | 1010.3 |
| 20260904061407 | 78 | 341 | 0.0 | 0.0 | 0.00 | 0.00 | 0.00 | 83 | 1010.6 |
| 20260904060903 | 78 | 340 | 0.0 | 0.0 | 0.00 | 0.00 | 0.00 | 82 | 1010.5 |
| 20260904060358 | 79 | 341 | 0.0 | 0.0 | 0.00 | 0.00 | 0.00 | 82 | 1010.6 |
| 20260904055854 | 79 | 341 | 0.0 | 0.0 | 0.00 | 0.00 | 0.00 | 82 | 1010.8 |
| 20260904055349 | 79 | 341 | 0.0 | 0.0 | 0.00 | 0.00 | 0.00 | 82 | 1010.6 |
| 20260904054844 | 79 | 341 | 0.0 | 0.0 | 0.00 | 0.00 | 0.00 | 82 | 1010.7 |
| 20260904054340 | 79 | 341 | 0.0 | 0.0 | 0.00 | 0.00 | 0.00 | 82 | 1010.8 |
| 20260904053836 | 79 | 335 | 0.0 | 0.0 | 0.00 | 0.00 | 0.00 | 81 | 1011.0 |
| 20260904053335 | 79 | 334 | 0.0 | 0.0 | 0.00 | 0.00 | 0.00 | 81 | 1010.9 |
| 20260904052831 | 79 | 335 | 0.0 | 0.0 | 0.00 | 0.00 | 0.00 | 81 | 1010.9 |
| 20260904052327 | 79 | 335 | 0.0 | 0.0 | 0.00 | 0.00 | 0.00 | 81 | 1011.1 |
| 20260904051823 | 79 | 334 | 0.0 | 0.0 | 0.00 | 0.00 | 0.00 | 81 | 1011.0 |
| 20260904051319 | 80 | 334 | 0.0 | 0.0 | 0.00 | 0.00 | 0.00 | 80 | 1011.1 |
| 20260904050814 | 80 | 333 | 0.0 | 0.0 | 0.00 | 0.00 | 0.00 | 80 | 1011.1 |
| 20260904050311 | 80 | 340 | 0.0 | 0.0 | 0.00 | 0.00 | 0.00 | 80 | 1011.3 |
| 20260904045810 | 80 | 340 | 0.0 | 0.0 | 0.00 | 0.00 | 0.00 | 79 | 1011.3 |
| 20260904045307 | 80 | 340 | 0.0 | 0.0 | 0.00 | 0.00 | 0.00 | 79 | 1011.1 |
| 20260904044800 | 80 | 340 | 0.0 | 0.0 | 0.00 | 0.00 | 0.00 | 79 | 1011.2 |
| 20260904044256 | 80 | 337 | 0.0 | 1.0 | 0.00 | 0.00 | 0.00 | 79 | 1011.3 |
| 20260904043746 | 80 | 335 | 0.0 | 0.0 | 0.00 | 0.00 | 0.00 | 78 | 1011.4 |
| 20260904043243 | 80 | 335 | 0.0 | 0.0 | 0.00 | 0.00 | 0.00 | 78 | 1011.3 |
| 20260904042737 | 80 | 336 | 0.0 | 0.0 | 0.00 | 0.00 | 0.00 | 78 | 1011.4 |
| 20260904042234 | 80 | 335 | 0.0 | 0.0 | 0.00 | 0.00 | 0.00 | 78 | 1011.3 |
| 20260904041733 | 80 | 335 | 0.0 | 0.0 | 0.00 | 0.00 | 0.00 | 77 | 1011.3 |
| 20260904041230 | 81 | 336 | 0.0 | 0.0 | 0.00 | 0.00 | 0.00 | 77 | 1011.4 |
| 20260904040725 | 81 | 335 | 0.0 | 0.0 | 0.00 | 0.00 | 0.00 | 76 | 1011.4 |
| 20260904040221 | 81 | 335 | 0.0 | 0.0 | 0.00 | 0.00 | 0.00 | 76 | 1011.2 |
| 20260904035717 | 81 | 335 | 0.0 | 0.0 | 0.00 | 0.00 | 0.00 | 76 | 1011.2 |
| 20260904035212 | 81 | 334 | 0.0 | 0.0 | 0.00 | 0.00 | 0.00 | 75 | 1011.5 |
| 20260904034711 | 81 | 335 | 0.0 | 0.0 | 0.00 | 0.00 | 0.00 | 75 | 1011.4 |
| 20260904034207 | 81 | 335 | 0.0 | 0.0 | 0.00 | 0.00 | 0.00 | 75 | 1011.2 |
| 20260904033703 | 82 | 335 | 0.0 | 0.0 | 0.00 | 0.00 | 0.00 | 74 | 1011.3 |
| 20260904033159 | 82 | 335 | 0.0 | 0.0 | 0.00 | 0.00 | 0.00 | 74 | 1011.3 |
| 20260904032655 | 82 | 335 | 0.0 | 0.0 | 0.00 | 0.00 | 0.00 | 74 | 1011.3 |
| 20260904032153 | 82 | 335 | 0.0 | 1.0 | 0.00 | 0.00 | 0.00 | 73 | 1011.2 |
| 20260904031648 | 82 | 330 | 0.0 | 0.0 | 0.00 | 0.00 | 0.00 | 73 | 1011.2 |
| 20260904031144 | 82 | 332 | 0.0 | 0.0 | 0.00 | 0.00 | 0.00 | 73 | 1011.5 |
| 20260904030639 | 82 | 332 | 0.0 | 0.0 | 0.00 | 0.00 | 0.00 | 72 | 1011.4 |
| 20260904030135 | 83 | 332 | 0.0 | 0.0 | 0.00 | 0.00 | 0.00 | 72 | 1011.3 |
| 20260904025630 | 83 | 332 | 0.0 | 0.0 | 0.00 | 0.00 | 0.00 | 72 | 1011.1 |
| 20260904025125 | 83 | 332 | 0.0 | 0.0 | 0.00 | 0.00 | 0.00 | 72 | 1011.5 |
| 20260904024621 | 83 | 330 | 0.0 | 0.0 | 0.00 | 0.00 | 0.00 | 71 | 1011.1 |
| 20260904024116 | 83 | 330 | 0.0 | 0.0 | 0.00 | 0.00 | 0.00 | 71 | 1011.1 |
| 20260904023612 | 83 | 330 | 0.0 | 0.0 | 0.00 | 0.00 | 0.00 | 71 | 1011.1 |
| 20260904023108 | 83 | 330 | 0.0 | 0.0 | 0.00 | 0.00 | 0.00 | 71 | 1011.3 |
| 20260904022608 | 83 | 330 | 0.0 | 0.0 | 0.00 | 0.00 | 0.00 | 71 | 1011.5 |
| 20260904022105 | 83 | 330 | 0.0 | 0.0 | 0.00 | 0.00 | 0.00 | 71 | 1011.0 |
| 20260904021600 | 84 | 329 | 0.0 | 0.0 | 0.00 | 0.00 | 0.00 | 71 | 1011.1 |
| 20260904021055 | 84 | 329 | 0.0 | 0.0 | 0.00 | 0.00 | 0.00 | 70 | 1011.1 |
| 20260904020550 | 84 | 329 | 0.0 | 0.0 | 0.00 | 0.00 | 0.00 | 70 | 1011.3 |
| 20260904020044 | 84 | 330 | 0.0 | 0.0 | 0.00 | 0.00 | 0.00 | 70 | 1010.8 |
| 20260904015539 | 84 | 330 | 0.0 | 0.0 | 0.00 | 0.00 | 0.00 | 70 | 1010.8 |
| 20260904015038 | 85 | 329 | 0.0 | 0.0 | 0.00 | 0.00 | 0.00 | 69 | 1010.9 |
| 20260904014532 | 85 | 329 | 0.0 | 0.0 | 0.00 | 0.00 | 0.00 | 69 | 1010.7 |
| 20260904014028 | 85 | 329 | 0.0 | 0.0 | 0.00 | 0.00 | 0.00 | 68 | 1010.7 |
| 20260904013524 | 85 | 330 | 0.0 | 0.0 | 0.00 | 0.00 | 0.00 | 68 | 1010.7 |
| 20260904013021 | 85 | 333 | 0.0 | 1.0 | 0.00 | 0.00 | 0.00 | 67 | 1010.7 |
| 20260904012520 | 85 | 330 | 0.0 | 0.0 | 0.00 | 0.00 | 0.00 | 67 | 1010.5 |
| 20260904012015 | 85 | 330 | 0.0 | 0.0 | 0.00 | 0.00 | 0.00 | 68 | 1010.4 |
| 20260904011514 | 85 | 330 | 0.0 | 0.0 | 0.00 | 0.00 | 0.00 | 68 | 1010.2 |
| 20260904011010 | 86 | 330 | 0.0 | 0.0 | 0.00 | 0.00 | 0.00 | 68 | 1010.4 |
| 20260904010506 | 86 | 330 | 0.0 | 0.0 | 0.00 | 0.00 | 0.00 | 68 | 1010.3 |
| 20260904010001 | 86 | 330 | 0.0 | 0.0 | 0.00 | 0.00 | 0.00 | 67 | 1010.2 |
| 20260904005456 | 86 | 330 | 0.0 | 0.0 | 0.00 | 0.00 | 0.00 | 67 | 1010.1 |
| 20260904004951 | 86 | 330 | 0.0 | 0.0 | 0.00 | 0.00 | 0.00 | 67 | 1009.9 |
| 20260904004447 | 86 | 330 | 0.0 | 0.0 | 0.00 | 0.00 | 0.00 | 66 | 1009.8 |
| 20260904003947 | 86 | 330 | 0.0 | 0.0 | 0.00 | 0.00 | 0.00 | 66 | 1009.8 |
| 20260904003443 | 87 | 330 | 0.0 | 0.0 | 0.00 | 0.00 | 0.00 | 66 | 1009.6 |
| 20260904002938 | 87 | 330 | 0.0 | 0.0 | 0.00 | 0.00 | 0.00 | 66 | 1009.5 |
| 20260904002435 | 87 | 330 | 0.0 | 0.0 | 0.00 | 0.00 | 0.00 | 65 | 1009.5 |
| 20260904001933 | 87 | 329 | 0.0 | 0.0 | 0.00 | 0.00 | 0.00 | 65 | 1009.4 |
| 20260904001429 | 88 | 328 | 0.0 | 0.0 | 0.00 | 0.00 | 0.00 | 64 | 1009.2 |
| 20260904000929 | 88 | 328 | 0.0 | 0.0 | 0.00 | 0.00 | 0.00 | 64 | 1009.1 |
| 20260904000428 | 88 | 330 | 0.0 | 0.0 | 0.00 | 0.00 | 0.00 | 64 | 1009.2 |
| 20260903235925 | 89 | 6 | 0.0 | 0.0 | 0.00 | 0.00 | 0.00 | 63 | 1008.7 |
| 20260903235420 | 89 | 36 | 0.0 | 0.0 | 0.00 | 0.00 | 0.00 | 62 | 1008.9 |
| 20260903234920 | 89 | 36 | 0.0 | 0.0 | 0.00 | 0.00 | 0.00 | 62 | 1008.9 |
| 20260903234416 | 90 | 36 | 0.0 | 0.0 | 0.00 | 0.00 | 0.00 | 61 | 1008.9 |
| 20260903233912 | 90 | 36 | 0.0 | 0.0 | 0.00 | 0.00 | 0.00 | 61 | 1009.1 |
| 20260903233408 | 90 | 36 | 0.0 | 0.0 | 0.00 | 0.00 | 0.00 | 61 | 1009.0 |
| 20260903232902 | 91 | 36 | 0.0 | 1.0 | 0.00 | 0.00 | 0.00 | 60 | 1008.9 |
| 20260903232357 | 91 | 36 | 0.0 | 0.0 | 0.00 | 0.00 | 0.00 | 59 | 1008.9 |
| 20260903231856 | 92 | 36 | 0.0 | 0.0 | 0.00 | 0.00 | 0.00 | 58 | 1009.0 |
| 20260903231351 | 92 | 36 | 0.0 | 0.0 | 0.00 | 0.00 | 0.00 | 58 | 1008.8 |
| 20260903230847 | 93 | 36 | 0.0 | 1.0 | 0.00 | 0.00 | 0.00 | 57 | 1009.0 |
| 20260903230342 | 93 | 36 | 0.0 | 1.0 | 0.00 | 0.00 | 0.00 | 57 | 1009.2 |
| 20260903225838 | 93 | 36 | 0.0 | 0.0 | 0.00 | 0.00 | 0.00 | 57 | 1009.0 |
| 20260903225334 | 93 | 36 | 0.0 | 1.0 | 0.00 | 0.00 | 0.00 | 57 | 1009.1 |
| 20260903224830 | 93 | 39 | 0.0 | 0.0 | 0.00 | 0.00 | 0.00 | 56 | 1009.0 |
| 20260903224326 | 93 | 39 | 0.0 | 0.0 | 0.00 | 0.00 | 0.00 | 56 | 1009.1 |
| 20260903223821 | 94 | 39 | 0.0 | 0.0 | 0.00 | 0.00 | 0.00 | 55 | 1009.1 |
| 20260903223320 | 94 | 39 | 0.0 | 0.0 | 0.00 | 0.00 | 0.00 | 54 | 1009.1 |
| 20260903222815 | 94 | 39 | 0.0 | 1.0 | 0.00 | 0.00 | 0.00 | 54 | 1009.1 |
| 20260903222314 | 94 | 39 | 0.0 | 0.0 | 0.00 | 0.00 | 0.00 | 54 | 1008.8 |